EA4BCR Weather Reports


time (UTC)temp
C
wind
direction
speed
KPH
gust
KPH
rain 1hr
cm
rain 24hr
cm
rain mn
cm
humidity
%
barometer
mb
20260503040654 16 0.0 0.0 0.00 0.00 0.00 10 1013.7
20260503035654 16 0.0 0.0 0.00 0.00 0.00 10 1013.7
20260503034653 15 0.0 0.0 0.00 0.00 0.00 10 1014.1
20260503033654 16 0.0 0.0 0.00 0.00 0.00 10 1013.9
20260503032654 16 0.0 0.0 0.00 0.00 0.00 10 1014.1
20260503031654 16 0.0 0.0 0.00 0.00 0.00 10 1014.3
20260503030653 16 0.0 0.0 0.00 0.00 0.00 10 1014.3
20260503025653 16 0.0 0.0 0.00 0.00 0.00 10 1014.0
20260503024653 15 0.0 0.0 0.00 0.00 0.00 10 1014.4
20260503023654 16 0.0 0.0 0.00 0.00 0.00 10 1014.3
20260503022654 16 0.0 0.0 0.00 0.00 0.00 10 1014.0
20260503021653 16 0.0 0.0 0.00 0.00 0.00 10 1014.2
20260503020653 16 0.0 0.0 0.00 0.00 0.00 10 1014.1
20260503015653 16 0.0 0.0 0.00 0.00 0.00 10 1014.1
20260503014653 16 0.0 0.0 0.00 0.00 0.00 10 1014.2
20260503013653 16 0.0 0.0 0.00 0.00 0.00 10 1014.1
20260503012653 16 0.0 0.0 0.00 0.00 0.00 10 1014.2
20260503011653 16 0.0 0.0 0.00 0.00 0.00 10 1014.4
20260503010653 16 0.0 0.0 0.00 0.00 0.00 10 1014.3
20260503005653 16 0.0 0.0 0.00 0.00 0.00 10 1014.6
20260503004653 16 0.0 0.0 0.00 0.00 0.00 10 1014.7
20260503003653 16 0.0 0.0 0.00 0.00 0.00 10 1014.7
20260503002653 16 0.0 0.0 0.00 0.00 0.00 10 1014.8
20260503001653 16 0.0 0.0 0.00 0.00 0.00 10 1014.9
20260503000653 16 0.0 0.0 0.00 0.00 0.00 10 1015.1
20260502235653 16 0.0 0.0 0.00 0.00 0.00 10 1015.1
20260502234653 16 0.0 0.0 0.00 0.00 0.00 10 1015.2
20260502233653 16 0.0 0.0 0.00 0.00 0.00 10 1015.2
20260502232653 16 0.0 0.0 0.00 0.00 0.00 10 1015.4
20260502231654 16 0.0 0.0 0.00 0.00 0.00 10 1015.5
20260502230653 16 0.0 0.0 0.00 0.00 0.00 10 1015.6
20260502225653 16 0.0 0.0 0.00 0.00 0.00 10 1015.6
20260502224653 16 0.0 0.0 0.00 0.00 0.00 10 1015.9
20260502223654 16 0.0 0.0 0.00 0.00 0.00 10 1016.0
20260502222653 16 0.0 0.0 0.00 0.00 0.00 10 1016.1
20260502221653 16 0.0 0.0 0.00 0.00 0.00 10 1015.8
20260502220653 16 0.0 0.0 0.00 0.00 0.00 10 1015.8
20260502215653 16 0.0 0.0 0.00 0.00 0.00 10 1015.9
20260502214653 16 0.0 0.0 0.00 0.00 0.00 10 1015.9
20260502213653 16 0.0 0.0 0.00 0.00 0.00 10 1016.0
20260502212653 16 0.0 0.0 0.00 0.00 0.00 10 1016.0
20260502211653 16 0.0 0.0 0.00 0.00 0.00 10 1015.9
20260502210653 15 0.0 0.0 0.00 0.00 0.00 10 1016.2
20260502205653 14 0.0 0.0 0.00 0.00 0.00 10 1016.5
20260502204653 14 0.0 0.0 0.00 0.00 0.00 10 1016.3
20260502203653 14 0.0 0.0 0.00 0.00 0.00 10 1016.5
20260502202653 13 0.0 0.0 0.00 0.00 0.00 10 1016.5
20260502201653 15 0.0 0.0 0.00 0.00 0.00 10 1015.9
20260502200653 17 0.0 0.0 0.00 0.00 0.00 10 1014.9
20260502195653 17 0.0 0.0 0.00 0.00 0.00 10 1014.5
20260502194653 17 0.0 0.0 0.00 0.00 0.00 10 1014.5
20260502193653 17 0.0 0.0 0.00 0.00 0.00 10 1014.0
20260502192653 17 0.0 0.0 0.00 0.00 0.00 10 1014.0
20260502191653 17 0.0 0.0 0.00 0.00 0.00 10 1014.3
20260502190653 17 0.0 0.0 0.00 0.00 0.00 10 1014.0
20260502185653 17 0.0 0.0 0.00 0.00 0.00 10 1013.9
20260502184653 17 0.0 0.0 0.00 0.00 0.00 10 1013.9
20260502183653 17 0.0 0.0 0.00 0.00 0.00 10 1013.8
20260502182653 16 0.0 0.0 0.00 0.00 0.00 10 1014.2
20260502181653 17 0.0 0.0 0.00 0.00 0.00 10 1014.2
20260502180653 17 0.0 0.0 0.00 0.00 0.00 10 1014.0
20260502163653 19 0.0 0.0 0.00 0.00 0.00 64 1013.4
20260502162653 20 0.0 0.0 0.00 0.00 0.00 61 1013.2
20260502161653 19 0.0 0.0 0.00 0.00 0.00 61 1013.3
20260502160653 19 0.0 0.0 0.00 0.00 0.00 61 1013.5
20260502151653 20 0.0 0.0 0.00 0.00 0.00 58 1013.7
20260502150653 20 0.0 0.0 0.00 0.00 0.00 57 1013.8
20260502130653 18 0.0 0.0 0.00 0.00 0.00 64 1016.4
20260502123653 18 0.0 0.0 0.00 0.00 0.00 64 1016.5
20260502122653 18 0.0 0.0 0.00 0.00 0.00 65 1016.9
20260502121653 18 0.0 0.0 0.00 0.00 0.00 64 1016.8
20260502120656 17 0.0 0.0 0.00 0.00 0.00 65 1017.4
20260502115654 18 0.0 0.0 0.00 0.00 0.00 65 1017.4
20260502114653 18 0.0 0.0 0.00 0.00 0.00 67 1017.0
20260502113653 18 0.0 0.0 0.00 0.00 0.00 66 1016.7
20260502112653 18 0.0 0.0 0.00 0.00 0.00 66 1017.1
20260502111653 18 0.0 0.0 0.00 0.00 0.00 69 1017.4
20260502110653 17 0.0 0.0 0.00 0.00 0.00 71 1017.7
20260502105653 17 0.0 0.0 0.00 0.00 0.00 72 1018.1
20260502104653 17 0.0 0.0 0.00 0.00 0.00 73 1018.1
20260502103653 17 0.0 0.0 0.00 0.00 0.00 70 1017.9
20260502102653 17 0.0 0.0 0.00 0.00 0.00 69 1018.2
20260502101653 18 0.0 0.0 0.00 0.00 0.00 66 1017.7
20260502100654 17 0.0 0.0 0.00 0.00 0.00 70 1017.9
20260502090653 17 0.0 0.0 0.00 0.00 0.00 77 1018.2
20260502070653 16 0.0 0.0 0.00 0.00 0.00 98 1019.3
20260502065653 15 0.0 0.0 0.00 0.00 0.00 10 1019.4
20260502064653 16 0.0 0.0 0.00 0.00 0.00 99 1019.1
20260502063653 15 0.0 0.0 0.00 0.00 0.00 10 1019.4
20260502062653 15 0.0 0.0 0.00 0.00 0.00 10 1019.3
20260502061653 15 0.0 0.0 0.00 0.00 0.00 10 1019.4
20260502060653 15 0.0 0.0 0.00 0.00 0.00 10 1019.4
20260502055652 15 0.0 0.0 0.00 0.00 0.00 10 1019.3
20260502054653 15 0.0 0.0 0.00 0.00 0.00 10 1019.6
20260502053653 15 0.0 0.0 0.00 0.00 0.00 10 1019.6
20260502052653 15 0.0 0.0 0.00 0.00 0.00 98 1019.0
20260502051653 15 0.0 0.0 0.00 0.00 0.00 10 1019.1
20260502050652 15 0.0 0.0 0.00 0.00 0.00 10 1019.2
20260502045653 15 0.0 0.0 0.00 0.00 0.00 10 1019.3
20260502044653 15 0.0 0.0 0.00 0.00 0.00 10 1019.5
20260502043653 15 0.0 0.0 0.00 0.00 0.00 10 1019.4
20260502042653 15 0.0 0.0 0.00 0.00 0.00 99 1019.5
20260502041652 15 0.0 0.0 0.00 0.00 0.00 99 1019.4